This demonstration page uses our WeatherBlox Daily Observations layout. Learn more.

Left ArrowRight Arrow

Hourly Observations for February 21, 2017

Temp ( °F °C ) Dew Point ( °F °C ) Humidity (%) Winds ( mph kmh ) Pressure ( in mb ) Visibility ( mi km ) Precip ( " mm )
12:53 am 00:53 Clear 49 9.4 42 5.6 77 77 N N/A 30.06 1018 10 16 N/A
1:53 am 01:53 Clear 47 8.3 41 5 80 80 N N/A 30.04 1017 10 16 N/A
2:53 am 02:53 Clear 44 6.7 40 4.4 85 85 N N/A 30.05 1018 10 16 N/A
3:53 am 03:53 Clear 42 5.6 39 3.9 89 89 N N/A 30.03 1017 10 16 N/A
4:53 am 04:53 Clear 41 5 39 3.9 93 93 N N/A 30.02 1017 10 16 N/A
5:53 am 05:53 Clear 47 8.3 41 5 80 80 E 3 6 30.03 1017 10 16 N/A
6:53 am 06:53 Clear 41 5 39 3.9 93 93 N N/A 30.03 1017 10 16 N/A
7:53 am 07:53 Sunny 44 6.7 41 5 89 89 ESE 3 6 30.04 1017 10 16 N/A
8:53 am 08:53 Sunny 51 10.6 45 7.2 80 80 ESE 6 9 30.04 1017 10 16 N/A
9:53 am 09:53 Sunny 57 13.9 46 7.8 67 67 E 5 7 30.03 1017 10 16 N/A
10:53 am 10:53 Sunny 61 16.1 47 8.3 60 60 N N/A 30.03 1017 10 16 N/A
11:53 am 11:53 Sunny 63 17.2 48 8.9 58 58 VRB 3 6 30.03 1017 10 16 N/A
12:53 pm 12:53 Sunny 63 17.2 49 9.4 60 60 N N/A 30.01 1016 10 16 N/A
1:53 pm 13:53 Mostly Sunny 66 18.9 48 8.9 52 52 W 3 6 30.00 1016 10 16 N/A
2:53 pm 14:53 Mostly Cloudy 64 17.8 48 8.9 56 56 N N/A 29.98 1015 10 16 N/A
3:53 pm 15:53 Cloudy with Light Rain 58 14.4 51 10.6 78 78 NNW 3 6 29.98 1015 6 10 N/A
4:53 pm 16:53 Cloudy with Light Rain 57 13.9 55 12.8 93 93 SSE 5 7 29.98 1015 4 6 0.07 1.78
5:53 pm 17:53 Cloudy with Light Rain 56 13.3 55 12.8 97 97 N N/A 30.00 1016 5 8 0.02 0.51
6:53 pm 18:53 Cloudy with Light Rain 55 12.8 55 12.8 100 100 N N/A 30.01 1016 5 8 N/A
7:53 pm 19:53 Cloudy with Light Rain 55 12.8 55 12.8 100 100 N N/A 30.00 1016 3 5 0.01 0.25
8:27 pm 20:27 Cloudy with Light Rain 54 12.2 54 12.2 100 100 N N/A 30.03 1017 3 4 0.01 0.25
8:35 pm 20:35 Cloudy with Light Rain 55 12.8 55 12.8 100 100 N N/A 30.03 1017 3 5 0.01 0.25
8:53 pm 20:53 Cloudy with Light Rain 55 12.8 55 12.8 100 100 N N/A 30.00 1016 4 6 0.01 0.25
9:14 pm 21:14 Cloudy with Light Rain 54 12.2 54 12.2 100 100 N N/A 30.03 1017 3 4 N/A
9:29 pm 21:29 Cloudy with Mist and Fog 54 12.2 54 12.2 100 100 N N/A 30.03 1017 3 5 N/A
9:50 pm 21:50 Cloudy with Light Rain 55 13 55 13 100 100 E 3 6 30.03 1017 3 4 0.01 0.25
9:53 pm 21:53 Cloudy with Light Rain 55 12.8 55 12.8 100 100 E 3 6 29.99 1016 3 4 0.01 0.25
10:25 pm 22:25 Cloudy with Light Rain 54 12.2 54 12.2 100 100 ESE 3 6 30.03 1017 2 3 N/A
10:37 pm 22:37 Cloudy with Light Rain 54 12.2 54 12.2 100 100 N N/A 30.00 1016 1 2 N/A
10:53 pm 22:53 Cloudy with Light Rain 53 11.7 53 11.7 100 100 N N/A 29.98 1015 1 2 N/A
11:05 pm 23:05 Cloudy with Light Rain 53 11.7 53 11.7 100 100 N N/A 30.00 1016 2 3 N/A
11:11 pm 23:11 Cloudy with Mist and Fog 54 12.2 54 12.2 100 100 N N/A 30.00 1016 2 2 N/A
11:28 pm 23:28 Cloudy with Fog 53 11.7 53 11.7 100 100 N N/A 30.00 1016 0 0 N/A
11:38 pm 23:38 Cloudy with Fog 52 11.1 52 11.1 100 100 N N/A 30.00 1016 0 0 N/A
11:53 pm 23:53 Cloudy with Fog 52 11.1 52 11.1 100 100 N N/A 29.96 1015 1 1 N/A

Powered by AerisWeather